Time,TemperatureF,DewpointF,PressureIn,WindDirection,WindDirectionDegrees,WindSpeedMPH,WindSpeedGustMPH,Humidity,HourlyPrecipIn,Conditions,Clouds,dailyrainin,SoftwareType,DateUTC
2014-01-30 00:01:00,19.9,0.0,30.09,SSE,157,17.3,17.3,0,0.00,CLR,,0.00,WeatherDisplay:10.37,2014-01-30 06:01:00,
2014-01-30 00:06:00,19.9,0.0,30.09,SSW,193,13.8,13.8,0,0.00,CLR,,0.00,WeatherDisplay:10.37,2014-01-30 06:06:00,
2014-01-30 00:11:00,19.8,0.0,30.09,SSW,203,17.3,17.3,0,0.00,CLR,,0.00,WeatherDisplay:10.37,2014-01-30 06:11:00,
2014-01-30 00:16:00,19.8,0.0,30.08,SSW,192,16.7,16.7,0,0.00,CLR,,0.00,WeatherDisplay:10.37,2014-01-30 06:16:00,
2014-01-30 00:21:00,19.7,0.0,30.08,SSW,196,12.7,12.7,0,0.00,CLR,,0.00,WeatherDisplay:10.37,2014-01-30 06:21:00,
2014-01-30 00:26:00,19.5,0.0,30.08,SSE,165,16.1,16.1,0,0.00,CLR,,0.00,WeatherDisplay:10.37,2014-01-30 06:26:00,
2014-01-30 00:31:00,19.5,0.0,30.08,SE,143,13.2,13.2,0,0.00,CLR,,0.00,WeatherDisplay:10.37,2014-01-30 06:31:00,
2014-01-30 00:36:00,19.5,0.0,30.08,SSW,199,12.7,12.7,0,0.00,CLR,,0.00,WeatherDisplay:10.37,2014-01-30 06:36:00,
2014-01-30 00:41:00,19.5,0.0,30.08,SSE,164,13.8,13.8,0,0.00,CLR,,0.00,WeatherDisplay:10.37,2014-01-30 06:41:00,
2014-01-30 00:46:00,19.5,0.0,30.07,SSE,168,10.4,10.4,0,0.00,CLR,,0.00,WeatherDisplay:10.37,2014-01-30 06:46:00,
2014-01-30 00:51:00,19.5,0.0,30.07,South,175,17.3,17.3,0,0.00,CLR,,0.00,WeatherDisplay:10.37,2014-01-30 06:51:00,
2014-01-30 00:56:00,19.5,0.0,30.07,SSW,195,17.3,17.3,0,0.00,CLR,,0.00,WeatherDisplay:10.37,2014-01-30 06:56:00,
2014-01-30 01:01:00,19.5,0.0,30.07,South,182,12.7,12.7,0,0.00,CLR,,0.00,WeatherDisplay:10.37,2014-01-30 07:01:00,
2014-01-30 01:06:00,19.6,0.0,30.07,South,169,20.7,20.7,0,0.00,CLR,,0.00,WeatherDisplay:10.37,2014-01-30 07:06:00,
2014-01-30 01:11:00,19.6,0.0,30.07,SSW,210,12.7,12.7,0,0.00,CLR,,0.00,WeatherDisplay:10.37,2014-01-30 07:11:00,
2014-01-30 01:16:00,19.5,0.0,30.07,South,175,16.1,16.1,0,0.00,CLR,,0.00,WeatherDisplay:10.37,2014-01-30 07:16:00,
2014-01-30 01:21:00,19.5,0.0,30.07,South,172,10.4,10.4,0,0.00,CLR,,0.00,WeatherDisplay:10.37,2014-01-30 07:21:00,
2014-01-30 01:26:00,19.5,0.0,30.07,SSW,199,16.1,16.1,0,0.00,CLR,,0.00,WeatherDisplay:10.37,2014-01-30 07:26:00,
2014-01-30 01:31:00,19.5,0.0,30.06,South,175,15.0,15.0,0,0.00,CLR,,0.00,WeatherDisplay:10.37,2014-01-30 07:31:00,
2014-01-30 01:36:00,19.6,0.0,30.06,SE,131,15.0,15.0,0,0.00,CLR,,0.00,WeatherDisplay:10.37,2014-01-30 07:36:00,
2014-01-30 01:41:00,19.6,0.0,30.06,South,185,13.8,13.8,0,0.00,CLR,,0.00,WeatherDisplay:10.37,2014-01-30 07:41:00,
2014-01-30 01:46:00,19.6,0.0,30.06,SSE,168,13.8,13.8,0,0.00,CLR,,0.00,WeatherDisplay:10.37,2014-01-30 07:46:00,
2014-01-30 01:51:00,19.5,0.0,30.06,South,169,17.3,17.3,0,0.00,CLR,,0.00,WeatherDisplay:10.37,2014-01-30 07:51:00,
2014-01-30 01:56:00,19.6,0.0,30.06,SW,215,11.5,11.5,0,0.00,CLR,,0.00,WeatherDisplay:10.37,2014-01-30 07:56:00,
2014-01-30 02:01:00,19.5,0.0,30.06,SW,220,11.5,11.5,0,0.00,CLR,,0.00,WeatherDisplay:10.37,2014-01-30 08:01:00,
2014-01-30 02:06:00,19.6,0.0,30.06,SSE,164,16.1,16.1,0,0.00,CLR,,0.00,WeatherDisplay:10.37,2014-01-30 08:06:00,
2014-01-30 02:11:00,19.8,0.0,30.06,SSW,205,10.4,10.4,0,0.00,CLR,,0.00,WeatherDisplay:10.37,2014-01-30 08:11:00,
2014-01-30 02:16:00,19.8,0.0,30.06,SSE,162,13.8,13.8,0,0.00,CLR,,0.00,WeatherDisplay:10.37,2014-01-30 08:16:00,
2014-01-30 02:21:00,19.7,0.0,30.05,South,178,17.3,17.3,0,0.00,CLR,,0.00,WeatherDisplay:10.37,2014-01-30 08:21:00,
2014-01-30 02:26:00,19.7,0.0,30.05,SSE,167,10.4,10.4,0,0.00,CLR,,0.00,WeatherDisplay:10.37,2014-01-30 08:26:00,
2014-01-30 02:31:00,19.6,0.0,30.05,SSW,203,12.7,12.7,0,0.00,CLR,,0.00,WeatherDisplay:10.37,2014-01-30 08:31:00,
2014-01-30 02:36:00,19.6,0.0,30.05,SSE,160,15.0,15.0,0,0.00,CLR,,0.00,WeatherDisplay:10.37,2014-01-30 08:36:00,
2014-01-30 02:41:00,19.4,0.0,30.05,SSE,152,9.2,9.2,0,0.00,CLR,,0.00,WeatherDisplay:10.37,2014-01-30 08:41:00,
2014-01-30 02:46:00,19.1,0.0,30.05,South,186,10.4,10.4,0,0.00,CLR,,0.00,WeatherDisplay:10.37,2014-01-30 08:46:00,
2014-01-30 02:51:00,19.0,0.0,30.05,SSE,158,10.4,10.4,0,0.00,CLR,,0.00,WeatherDisplay:10.37,2014-01-30 08:51:00,
2014-01-30 02:56:00,19.0,0.0,30.06,South,178,9.9,9.9,0,0.00,CLR,,0.00,WeatherDisplay:10.37,2014-01-30 08:56:00,
2014-01-30 03:01:00,18.9,0.0,30.05,ESE,103,12.7,12.7,0,0.00,CLR,,0.00,WeatherDisplay:10.37,2014-01-30 09:01:00,
2014-01-30 03:06:00,18.8,0.0,30.06,ESE,102,9.2,9.2,0,0.00,CLR,,0.00,WeatherDisplay:10.37,2014-01-30 09:06:00,
2014-01-30 03:11:00,18.7,0.0,30.05,South,181,10.4,10.4,0,0.00,CLR,,0.00,WeatherDisplay:10.37,2014-01-30 09:11:00,
2014-01-30 03:16:00,18.7,0.0,30.05,SSE,150,15.0,15.0,0,0.00,CLR,,0.00,WeatherDisplay:10.37,2014-01-30 09:16:00,
2014-01-30 03:21:00,18.8,0.0,30.05,South,169,9.3,9.3,0,0.00,CLR,,0.00,WeatherDisplay:10.37,2014-01-30 09:21:00,
2014-01-30 03:26:00,18.9,0.0,30.05,SE,143,13.8,13.8,0,0.00,CLR,,0.00,WeatherDisplay:10.37,2014-01-30 09:26:00,
2014-01-30 03:31:00,19.0,0.0,30.05,SE,131,15.0,15.0,0,0.00,CLR,,0.00,WeatherDisplay:10.37,2014-01-30 09:31:00,
2014-01-30 03:36:00,18.8,0.0,30.05,ESE,123,8.1,8.1,0,0.00,CLR,,0.00,WeatherDisplay:10.37,2014-01-30 09:36:00,
2014-01-30 03:41:00,19.0,0.0,30.05,SSW,202,9.2,9.2,0,0.00,CLR,,0.00,WeatherDisplay:10.37,2014-01-30 09:41:00,
2014-01-30 03:46:00,19.0,0.0,30.05,SSW,195,10.4,10.4,0,0.00,CLR,,0.00,WeatherDisplay:10.37,2014-01-30 09:46:00,
2014-01-30 03:51:00,18.9,0.0,30.05,SSE,160,11.0,11.0,0,0.00,CLR,,0.00,WeatherDisplay:10.37,2014-01-30 09:51:00,
2014-01-30 03:56:00,19.1,0.0,30.05,SE,143,10.4,10.4,0,0.00,CLR,,0.00,WeatherDisplay:10.37,2014-01-30 09:56:00,
2014-01-30 04:01:00,19.1,0.0,30.05,South,182,16.1,16.1,0,0.00,CLR,,0.00,WeatherDisplay:10.37,2014-01-30 10:01:00,
2014-01-30 04:06:00,19.1,0.0,30.05,SSE,158,13.8,13.8,0,0.00,CLR,,0.00,WeatherDisplay:10.37,2014-01-30 10:06:00,
2014-01-30 04:11:00,19.1,0.0,30.04,SSE,154,12.9,12.9,0,0.00,CLR,,0.00,WeatherDisplay:10.37,2014-01-30 10:11:00,
2014-01-30 04:16:00,19.0,0.0,30.04,South,171,11.5,11.5,0,0.00,CLR,,0.00,WeatherDisplay:10.37,2014-01-30 10:16:00,
2014-01-30 04:21:00,18.8,0.0,30.04,SSW,210,10.7,10.7,0,0.00,CLR,,0.00,WeatherDisplay:10.37,2014-01-30 10:21:00,
2014-01-30 04:26:00,18.8,0.0,30.04,South,185,11.5,11.5,0,0.00,CLR,,0.00,WeatherDisplay:10.37,2014-01-30 10:26:00,
2014-01-30 04:31:00,18.9,0.0,30.04,SSW,200,13.8,13.8,0,0.00,CLR,,0.00,WeatherDisplay:10.37,2014-01-30 10:31:00,
2014-01-30 04:36:00,18.7,0.0,30.03,SE,138,12.7,12.7,0,0.00,CLR,,0.00,WeatherDisplay:10.37,2014-01-30 10:36:00,
2014-01-30 04:41:00,18.7,0.0,30.03,SSW,195,10.4,10.4,0,0.00,CLR,,0.00,WeatherDisplay:10.37,2014-01-30 10:41:00,
2014-01-30 04:46:00,18.6,0.0,30.03,South,169,11.5,11.5,0,0.00,CLR,,0.00,WeatherDisplay:10.37,2014-01-30 10:46:00,
2014-01-30 04:51:00,18.7,0.0,30.03,SE,140,10.9,10.9,0,0.00,CLR,,0.00,WeatherDisplay:10.37,2014-01-30 10:51:00,
2014-01-30 04:56:00,18.7,0.0,30.03,SSE,155,12.7,12.7,0,0.00,CLR,,0.00,WeatherDisplay:10.37,2014-01-30 10:56:00,
2014-01-30 05:01:00,18.7,0.0,30.03,SSE,167,12.7,12.7,0,0.00,CLR,,0.00,WeatherDisplay:10.37,2014-01-30 11:01:00,
2014-01-30 05:06:00,18.6,0.0,30.03,SSW,193,10.7,10.7,0,0.00,CLR,,0.00,WeatherDisplay:10.37,2014-01-30 11:06:00,
2014-01-30 05:11:00,18.5,0.0,30.03,SSE,158,11.5,11.5,0,0.00,CLR,,0.00,WeatherDisplay:10.37,2014-01-30 11:11:00,
2014-01-30 05:16:00,18.5,0.0,30.03,SSE,164,13.9,13.9,0,0.00,CLR,,0.00,WeatherDisplay:10.37,2014-01-30 11:16:00,
2014-01-30 05:21:00,18.6,0.0,30.02,ESE,121,9.2,9.2,0,0.00,CLR,,0.00,WeatherDisplay:10.37,2014-01-30 11:21:00,
2014-01-30 05:26:00,18.6,0.0,30.01,SE,143,9.4,9.4,0,0.00,CLR,,0.00,WeatherDisplay:10.37,2014-01-30 11:26:00,
2014-01-30 05:31:00,18.6,0.0,30.01,SE,126,11.5,11.5,0,0.00,CLR,,0.00,WeatherDisplay:10.37,2014-01-30 11:31:00,
2014-01-30 05:36:00,18.5,0.0,30.02,SE,131,10.4,10.4,0,0.00,CLR,,0.00,WeatherDisplay:10.37,2014-01-30 11:36:00,
2014-01-30 05:41:00,18.4,0.0,30.02,South,171,13.8,13.8,0,0.00,CLR,,0.00,WeatherDisplay:10.37,2014-01-30 11:41:00,
2014-01-30 05:46:00,18.6,0.0,30.02,SSE,148,10.4,10.4,0,0.00,CLR,,0.00,WeatherDisplay:10.37,2014-01-30 11:46:00,
2014-01-30 05:51:00,18.7,0.0,30.03,South,185,16.1,16.1,0,0.00,CLR,,0.00,WeatherDisplay:10.37,2014-01-30 11:51:00,
2014-01-30 05:56:00,18.7,0.0,30.03,SSE,161,15.6,15.6,0,0.00,CLR,,0.00,WeatherDisplay:10.37,2014-01-30 11:56:00,
2014-01-30 06:01:00,18.8,0.0,30.03,ESE,116,11.5,11.5,0,0.00,CLR,,0.00,WeatherDisplay:10.37,2014-01-30 12:01:00,
2014-01-30 06:06:00,18.8,0.0,30.02,SE,136,11.5,11.5,0,0.00,CLR,,0.00,WeatherDisplay:10.37,2014-01-30 12:06:00,
2014-01-30 06:11:00,18.9,0.0,30.01,SSW,195,19.6,19.6,0,0.00,CLR,,0.00,WeatherDisplay:10.37,2014-01-30 12:11:00,
2014-01-30 06:16:00,18.8,0.0,30.00,South,184,11.5,11.5,0,0.00,CLR,,0.00,WeatherDisplay:10.37,2014-01-30 12:16:00,
2014-01-30 06:21:00,19.0,0.0,30.00,SSE,147,13.8,13.8,0,0.00,CLR,,0.00,WeatherDisplay:10.37,2014-01-30 12:21:00,
2014-01-30 06:26:00,19.0,0.0,30.01,ESE,116,16.1,16.1,0,0.00,CLR,,0.00,WeatherDisplay:10.37,2014-01-30 12:26:00,
2014-01-30 06:31:00,19.2,0.0,30.01,South,191,17.3,17.3,0,0.00,CLR,,0.00,WeatherDisplay:10.37,2014-01-30 12:31:00,
2014-01-30 06:36:00,19.2,0.0,30.01,SE,138,14.9,14.9,0,0.00,CLR,,0.00,WeatherDisplay:10.37,2014-01-30 12:36:00,
2014-01-30 06:41:00,19.3,0.0,30.01,SSE,155,16.1,16.1,0,0.00,CLR,,0.00,WeatherDisplay:10.37,2014-01-30 12:41:00,
2014-01-30 06:46:00,19.4,0.0,30.01,South,185,13.4,13.4,0,0.00,CLR,,0.00,WeatherDisplay:10.37,2014-01-30 12:46:00,
2014-01-30 06:51:00,19.4,0.0,30.00,ESE,123,17.3,17.3,0,0.00,CLR,,0.00,WeatherDisplay:10.37,2014-01-30 12:51:00,
2014-01-30 06:56:00,19.5,0.0,30.00,South,184,17.3,17.3,0,0.00,CLR,,0.00,WeatherDisplay:10.37,2014-01-30 12:56:00,
2014-01-30 07:01:00,19.5,0.0,30.00,South,191,13.8,13.8,0,0.00,CLR,,0.00,WeatherDisplay:10.37,2014-01-30 13:01:00,
2014-01-30 07:06:00,19.6,0.0,30.00,SE,136,15.0,15.0,0,0.00,CLR,,0.00,WeatherDisplay:10.37,2014-01-30 13:06:00,
2014-01-30 07:11:00,19.4,0.0,29.99,South,169,10.9,10.9,0,0.00,CLR,,0.00,WeatherDisplay:10.37,2014-01-30 13:11:00,
2014-01-30 07:16:00,19.5,0.0,29.99,SSE,167,16.1,16.1,0,0.00,CLR,,0.00,WeatherDisplay:10.37,2014-01-30 13:16:00,
2014-01-30 07:21:00,19.6,0.0,29.99,SSE,151,12.7,12.7,0,0.00,CLR,,0.00,WeatherDisplay:10.37,2014-01-30 13:21:00,
2014-01-30 07:26:00,19.9,0.0,29.99,South,171,14.0,14.0,0,0.00,CLR,,0.00,WeatherDisplay:10.37,2014-01-30 13:26:00,
2014-01-30 07:31:00,20.2,0.0,29.99,SSW,206,12.7,12.7,0,0.00,CLR,,0.00,WeatherDisplay:10.37,2014-01-30 13:31:00,
2014-01-30 07:36:00,20.3,0.0,29.99,ESE,107,16.1,16.1,0,0.00,CLR,,0.00,WeatherDisplay:10.37,2014-01-30 13:36:00,
2014-01-30 07:41:00,20.5,0.0,29.99,SSW,192,12.8,12.8,0,0.00,CLR,,0.00,WeatherDisplay:10.37,2014-01-30 13:41:00,
2014-01-30 07:46:00,20.7,0.0,29.99,SSE,161,13.4,13.4,0,0.00,CLR,,0.00,WeatherDisplay:10.37,2014-01-30 13:46:00,
2014-01-30 07:51:00,20.9,0.0,29.98,SE,141,9.2,9.2,0,0.00,CLR,,0.00,WeatherDisplay:10.37,2014-01-30 13:51:00,
2014-01-30 07:56:00,21.2,0.0,29.98,SSE,164,13.7,13.7,0,0.00,CLR,,0.00,WeatherDisplay:10.37,2014-01-30 13:56:00,
2014-01-30 08:01:00,21.4,0.0,29.97,SSE,167,11.5,11.5,0,0.00,CLR,,0.00,WeatherDisplay:10.37,2014-01-30 14:01:00,
2014-01-30 08:06:00,21.6,0.0,29.97,SSE,165,24.2,24.2,0,0.00,CLR,,0.00,WeatherDisplay:10.37,2014-01-30 14:06:00,
2014-01-30 08:11:00,21.9,0.0,29.97,SSW,196,17.3,17.3,0,0.00,CLR,,0.00,WeatherDisplay:10.37,2014-01-30 14:11:00,
2014-01-30 08:16:00,22.0,0.0,29.97,South,171,21.9,21.9,0,0.00,CLR,,0.00,WeatherDisplay:10.37,2014-01-30 14:16:00,
2014-01-30 08:21:00,22.1,0.0,29.98,SSE,165,13.8,13.9,0,0.00,CLR,,0.00,WeatherDisplay:10.37,2014-01-30 14:21:00,
2014-01-30 08:26:00,22.3,0.0,29.97,SE,145,16.8,16.8,0,0.00,CLR,,0.00,WeatherDisplay:10.37,2014-01-30 14:26:00,
2014-01-30 08:31:00,22.6,0.0,29.96,SSW,192,17.3,17.3,0,0.00,CLR,,0.00,WeatherDisplay:10.37,2014-01-30 14:31:00,
2014-01-30 08:36:00,22.8,0.0,29.96,South,191,16.2,16.2,0,0.00,CLR,,0.00,WeatherDisplay:10.37,2014-01-30 14:36:00,
2014-01-30 08:41:00,23.0,0.0,29.96,SSE,165,16.1,16.1,0,0.00,CLR,,0.00,WeatherDisplay:10.37,2014-01-30 14:41:00,
2014-01-30 08:46:00,23.1,0.0,29.95,SE,140,16.1,16.1,0,0.00,CLR,,0.00,WeatherDisplay:10.37,2014-01-30 14:46:00,
2014-01-30 08:51:00,23.3,0.0,29.96,ESE,109,15.0,15.0,0,0.00,CLR,,0.00,WeatherDisplay:10.37,2014-01-30 14:51:00,
2014-01-30 08:56:00,23.3,0.0,29.95,SSE,168,12.7,12.7,0,0.00,CLR,,0.00,WeatherDisplay:10.37,2014-01-30 14:56:00,
2014-01-30 09:01:00,23.4,0.0,29.94,SE,136,16.1,16.1,0,0.00,CLR,,0.00,WeatherDisplay:10.37,2014-01-30 15:01:00,
2014-01-30 09:06:00,23.4,0.0,29.93,South,174,21.9,21.9,0,0.00,CLR,,0.00,WeatherDisplay:10.37,2014-01-30 15:06:00,
2014-01-30 09:11:00,23.5,0.0,29.93,SSE,154,19.6,19.6,0,0.00,CLR,,0.00,WeatherDisplay:10.37,2014-01-30 15:11:00,
2014-01-30 09:16:00,23.7,0.0,29.93,South,181,20.7,20.7,0,0.00,CLR,,0.00,WeatherDisplay:10.37,2014-01-30 15:16:00,
2014-01-30 09:21:00,23.8,0.0,29.92,SW,216,19.6,19.6,0,0.00,CLR,,0.00,WeatherDisplay:10.37,2014-01-30 15:21:00,
2014-01-30 09:26:00,23.7,0.0,29.93,SE,133,24.2,24.2,0,0.00,CLR,,0.00,WeatherDisplay:10.37,2014-01-30 15:26:00,
2014-01-30 09:31:00,24.0,0.0,29.93,ESE,113,19.6,19.6,0,0.00,CLR,,0.00,WeatherDisplay:10.37,2014-01-30 15:31:00,
2014-01-30 09:36:00,24.2,0.0,29.92,SE,133,16.1,16.1,0,0.00,CLR,,0.00,WeatherDisplay:10.37,2014-01-30 15:36:00,
2014-01-30 09:41:00,24.4,0.0,29.91,ESE,102,13.8,13.8,0,0.00,CLR,,0.00,WeatherDisplay:10.37,2014-01-30 15:41:00,
2014-01-30 09:46:00,24.6,0.0,29.92,SE,126,17.3,17.3,0,0.00,CLR,,0.00,WeatherDisplay:10.37,2014-01-30 15:46:00,
2014-01-30 09:51:00,24.9,0.0,29.92,SSW,206,19.6,19.6,0,0.00,CLR,,0.00,WeatherDisplay:10.37,2014-01-30 15:51:00,
2014-01-30 09:56:00,25.1,0.0,29.92,SW,219,19.6,19.6,0,0.00,CLR,,0.00,WeatherDisplay:10.37,2014-01-30 15:56:00,
2014-01-30 10:01:00,25.3,0.0,29.92,SE,134,15.0,15.0,0,0.00,CLR,,0.00,WeatherDisplay:10.37,2014-01-30 16:01:00,
2014-01-30 10:06:00,25.3,0.0,29.91,South,178,16.1,16.1,0,0.00,CLR,,0.00,WeatherDisplay:10.37,2014-01-30 16:06:00,
2014-01-30 10:11:00,25.5,0.0,29.91,SSW,198,21.5,21.5,0,0.00,CLR,,0.00,WeatherDisplay:10.37,2014-01-30 16:11:00,
2014-01-30 10:16:00,25.7,0.0,29.90,South,174,16.6,16.6,0,0.00,CLR,,0.00,WeatherDisplay:10.37,2014-01-30 16:16:00,
2014-01-30 10:21:00,25.8,0.0,29.89,SSE,167,19.6,19.6,0,0.00,CLR,,0.00,WeatherDisplay:10.37,2014-01-30 16:21:00,
2014-01-30 10:26:00,26.1,0.0,29.89,South,169,16.1,16.1,0,0.00,CLR,,0.00,WeatherDisplay:10.37,2014-01-30 16:26:00,
2014-01-30 10:31:00,26.4,0.0,29.90,SSE,162,20.7,20.7,0,0.00,CLR,,0.00,WeatherDisplay:10.37,2014-01-30 16:31:00,
2014-01-30 10:36:00,26.5,0.0,29.89,South,172,23.0,23.0,0,0.00,CLR,,0.00,WeatherDisplay:10.37,2014-01-30 16:36:00,
2014-01-30 10:41:00,26.7,0.0,29.89,SE,136,13.8,13.8,0,0.00,CLR,,0.00,WeatherDisplay:10.37,2014-01-30 16:41:00,
2014-01-30 10:46:00,26.9,0.0,29.90,South,184,23.0,23.0,0,0.00,CLR,,0.00,WeatherDisplay:10.37,2014-01-30 16:46:00,
2014-01-30 10:51:00,27.8,0.0,29.89,SSE,164,16.1,16.1,0,0.00,CLR,,0.00,WeatherDisplay:10.37,2014-01-30 16:51:00,
2014-01-30 10:56:00,28.6,0.0,29.89,SSW,198,16.1,16.1,0,0.00,CLR,,0.00,WeatherDisplay:10.37,2014-01-30 16:56:00,
2014-01-30 11:01:00,28.8,0.0,29.89,SSW,212,16.1,16.1,0,0.00,CLR,,0.00,WeatherDisplay:10.37,2014-01-30 17:01:00,
2014-01-30 11:06:00,29.7,0.0,29.89,SW,230,18.4,18.4,0,0.00,CLR,,0.00,WeatherDisplay:10.37,2014-01-30 17:06:00,
2014-01-30 11:11:00,30.6,0.0,29.88,SSW,196,17.3,17.3,0,0.00,CLR,,0.00,WeatherDisplay:10.37,2014-01-30 17:11:00,
2014-01-30 11:16:00,30.8,0.0,29.88,South,176,21.9,21.9,0,0.00,CLR,,0.00,WeatherDisplay:10.37,2014-01-30 17:16:00,
2014-01-30 11:21:00,31.3,0.0,29.87,South,181,12.7,12.7,0,0.00,CLR,,0.00,WeatherDisplay:10.37,2014-01-30 17:21:00,
2014-01-30 11:26:00,31.3,0.0,29.87,South,169,25.3,25.3,0,0.00,CLR,,0.00,WeatherDisplay:10.37,2014-01-30 17:26:00,
2014-01-30 11:31:00,31.8,0.0,29.86,SE,138,15.0,15.0,0,0.00,CLR,,0.00,WeatherDisplay:10.37,2014-01-30 17:31:00,
2014-01-30 11:36:00,31.7,0.0,29.86,SE,143,29.9,29.9,0,0.00,CLR,,0.00,WeatherDisplay:10.37,2014-01-30 17:36:00,
2014-01-30 11:41:00,31.6,0.0,29.85,South,169,26.5,26.5,0,0.00,CLR,,0.00,WeatherDisplay:10.37,2014-01-30 17:41:00,
2014-01-30 11:46:00,31.3,0.0,29.85,SSE,167,23.7,23.7,0,0.00,CLR,,0.00,WeatherDisplay:10.37,2014-01-30 17:46:00,
2014-01-30 11:51:00,31.1,0.0,29.84,SE,134,17.3,17.3,0,0.00,CLR,,0.00,WeatherDisplay:10.37,2014-01-30 17:51:00,
2014-01-30 11:56:00,31.1,0.0,29.83,South,182,35.7,35.7,0,0.00,CLR,,0.00,WeatherDisplay:10.37,2014-01-30 17:56:00,
2014-01-30 12:01:00,31.4,0.0,29.83,SSW,198,15.6,15.6,0,0.00,CLR,,0.00,WeatherDisplay:10.37,2014-01-30 18:01:00,
2014-01-30 12:06:00,31.5,0.0,29.82,SSW,200,26.5,26.5,0,0.00,CLR,,0.00,WeatherDisplay:10.37,2014-01-30 18:06:00,
2014-01-30 12:11:00,31.5,0.0,29.81,SSE,168,26.5,26.5,0,0.00,CLR,,0.00,WeatherDisplay:10.37,2014-01-30 18:11:00,
2014-01-30 12:16:00,31.2,0.0,29.81,SSE,161,18.4,18.4,0,0.00,CLR,,0.00,WeatherDisplay:10.37,2014-01-30 18:16:00,
2014-01-30 12:21:00,31.3,0.0,29.80,SSW,202,20.7,20.7,0,0.00,CLR,,0.00,WeatherDisplay:10.37,2014-01-30 18:21:00,
2014-01-30 12:26:00,31.4,0.0,29.79,SE,138,17.3,17.3,0,0.00,CLR,,0.00,WeatherDisplay:10.37,2014-01-30 18:26:00,
2014-01-30 12:31:00,31.5,0.0,29.78,South,182,26.5,26.5,0,0.00,CLR,,0.00,WeatherDisplay:10.37,2014-01-30 18:31:00,
2014-01-30 12:36:00,31.5,0.0,29.77,South,189,23.1,23.1,0,0.00,CLR,,0.00,WeatherDisplay:10.37,2014-01-30 18:36:00,
2014-01-30 12:41:00,31.7,0.0,29.77,South,171,36.8,36.8,0,0.00,CLR,,0.00,WeatherDisplay:10.37,2014-01-30 18:41:00,
2014-01-30 12:46:00,31.9,0.0,29.78,SSE,154,27.6,27.6,0,0.00,CLR,,0.00,WeatherDisplay:10.37,2014-01-30 18:46:00,
2014-01-30 12:51:00,31.9,0.0,29.77,SSE,152,26.8,26.8,0,0.00,CLR,,0.00,WeatherDisplay:10.37,2014-01-30 18:51:00,
2014-01-30 12:56:00,32.0,0.0,29.77,SSW,195,31.1,31.1,0,0.00,CLR,,0.00,WeatherDisplay:10.37,2014-01-30 18:56:00,
2014-01-30 13:01:00,32.1,0.0,29.77,South,169,13.8,13.8,0,0.00,CLR,,0.00,WeatherDisplay:10.37,2014-01-30 19:01:00,
2014-01-30 13:06:00,32.2,0.0,29.77,South,186,25.3,25.3,0,0.00,CLR,,0.00,WeatherDisplay:10.37,2014-01-30 19:06:00,
2014-01-30 13:11:00,32.4,0.0,29.77,South,186,23.0,23.0,0,0.00,CLR,,0.00,WeatherDisplay:10.37,2014-01-30 19:11:00,
2014-01-30 13:16:00,32.2,0.0,29.76,South,174,23.0,23.0,0,0.00,CLR,,0.00,WeatherDisplay:10.37,2014-01-30 19:16:00,
2014-01-30 13:21:00,32.3,0.0,29.75,South,185,26.5,26.5,0,0.00,CLR,,0.00,WeatherDisplay:10.37,2014-01-30 19:21:00,
2014-01-30 13:26:00,32.3,0.0,29.74,SSE,155,20.7,20.7,0,0.00,CLR,,0.00,WeatherDisplay:10.37,2014-01-30 19:26:00,
2014-01-30 13:31:00,32.3,0.0,29.73,South,188,19.6,19.6,0,0.00,CLR,,0.00,WeatherDisplay:10.37,2014-01-30 19:31:00,
2014-01-30 13:36:00,32.4,0.0,29.72,South,178,25.5,25.5,0,0.00,CLR,,0.00,WeatherDisplay:10.37,2014-01-30 19:36:00,
2014-01-30 13:41:00,32.2,0.0,29.74,South,178,27.6,27.6,0,0.00,CLR,,0.00,WeatherDisplay:10.37,2014-01-30 19:41:00,
2014-01-30 13:46:00,32.3,0.0,29.74,SE,143,25.3,25.3,0,0.00,CLR,,0.00,WeatherDisplay:10.37,2014-01-30 19:46:00,
2014-01-30 13:51:00,32.5,0.0,29.75,South,175,27.6,27.6,0,0.00,CLR,,0.00,WeatherDisplay:10.37,2014-01-30 19:51:00,
2014-01-30 13:56:00,32.7,0.0,29.74,South,181,19.6,19.6,0,0.00,CLR,,0.00,WeatherDisplay:10.37,2014-01-30 19:56:00,
2014-01-30 14:01:00,33.1,0.0,29.74,South,185,14.9,14.9,0,0.00,CLR,,0.00,WeatherDisplay:10.37,2014-01-30 20:01:00,
2014-01-30 14:06:00,32.9,0.0,29.73,South,174,16.5,16.5,0,0.00,CLR,,0.00,WeatherDisplay:10.37,2014-01-30 20:06:00,
2014-01-30 14:11:00,33.1,0.0,29.74,South,179,16.1,16.1,0,0.00,CLR,,0.00,WeatherDisplay:10.37,2014-01-30 20:11:00,
2014-01-30 14:16:00,33.1,0.0,29.74,SSE,165,18.4,18.4,0,0.00,CLR,,0.00,WeatherDisplay:10.37,2014-01-30 20:16:00,
2014-01-30 14:21:00,33.3,0.0,29.75,South,174,24.2,24.2,0,0.00,CLR,,0.00,WeatherDisplay:10.37,2014-01-30 20:21:00,
2014-01-30 14:26:00,33.3,0.0,29.75,SSE,150,26.5,26.5,0,0.00,CLR,,0.00,WeatherDisplay:10.37,2014-01-30 20:26:00,
2014-01-30 14:31:00,33.5,0.0,29.76,South,179,13.8,13.8,0,0.00,CLR,,0.00,WeatherDisplay:10.37,2014-01-30 20:31:00,
2014-01-30 14:36:00,33.3,0.0,29.76,South,174,24.2,24.2,0,0.00,CLR,,0.00,WeatherDisplay:10.37,2014-01-30 20:36:00,
2014-01-30 14:41:00,33.4,0.0,29.76,SSW,193,27.6,27.6,0,0.00,CLR,,0.00,WeatherDisplay:10.37,2014-01-30 20:41:00,
2014-01-30 14:46:00,33.4,0.0,29.77,SSE,162,19.8,19.8,0,0.00,CLR,,0.00,WeatherDisplay:10.37,2014-01-30 20:46:00,
2014-01-30 14:51:00,33.5,0.0,29.76,South,191,19.6,19.6,0,0.00,CLR,,0.00,WeatherDisplay:10.37,2014-01-30 20:51:00,
2014-01-30 14:56:00,33.3,0.0,29.77,South,185,23.0,23.0,0,0.00,CLR,,0.00,WeatherDisplay:10.37,2014-01-30 20:56:00,
2014-01-30 15:01:00,33.4,0.0,29.77,South,174,14.8,14.8,0,0.00,CLR,,0.00,WeatherDisplay:10.37,2014-01-30 21:01:00,
2014-01-30 15:06:00,33.5,0.0,29.77,South,174,21.9,21.9,0,0.00,CLR,,0.00,WeatherDisplay:10.37,2014-01-30 21:06:00,
2014-01-30 15:11:00,33.7,0.0,29.77,South,171,25.3,25.3,0,0.00,CLR,,0.00,WeatherDisplay:10.37,2014-01-30 21:11:00,
2014-01-30 15:16:00,33.7,0.0,29.77,SSW,202,18.4,18.4,0,0.00,CLR,,0.00,WeatherDisplay:10.37,2014-01-30 21:16:00,
2014-01-30 15:21:00,33.9,0.0,29.77,ESE,113,20.7,20.7,0,0.00,CLR,,0.00,WeatherDisplay:10.37,2014-01-30 21:21:00,
2014-01-30 15:26:00,34.0,0.0,29.77,South,184,17.3,17.3,0,0.00,CLR,,0.00,WeatherDisplay:10.37,2014-01-30 21:26:00,
2014-01-30 15:31:00,34.2,0.0,29.78,West,278,13.8,13.8,0,0.00,CLR,,0.00,WeatherDisplay:10.37,2014-01-30 21:31:00,
2014-01-30 15:36:00,34.6,0.0,29.77,South,172,27.6,27.6,0,0.00,CLR,,0.00,WeatherDisplay:10.37,2014-01-30 21:36:00,
2014-01-30 15:41:00,34.6,0.0,29.77,SSW,196,19.6,19.6,0,0.00,CLR,,0.00,WeatherDisplay:10.37,2014-01-30 21:41:00,
2014-01-30 15:46:00,34.6,0.0,29.78,SSE,147,23.0,23.0,0,0.00,CLR,,0.00,WeatherDisplay:10.37,2014-01-30 21:46:00,
2014-01-30 15:51:00,34.5,0.0,29.77,SSE,167,21.9,21.9,0,0.00,CLR,,0.00,WeatherDisplay:10.37,2014-01-30 21:51:00,
2014-01-30 15:56:00,34.4,0.0,29.77,SSE,157,16.1,16.1,0,0.00,CLR,,0.00,WeatherDisplay:10.37,2014-01-30 21:56:00,
2014-01-30 16:01:00,34.4,0.0,29.78,South,179,15.0,15.0,0,0.00,CLR,,0.00,WeatherDisplay:10.37,2014-01-30 22:01:00,
2014-01-30 16:06:00,34.4,0.0,29.78,SSW,196,21.3,21.3,0,0.00,CLR,,0.00,WeatherDisplay:10.37,2014-01-30 22:06:00,
2014-01-30 16:11:00,34.4,0.0,29.78,SSW,193,23.0,23.0,0,0.00,CLR,,0.00,WeatherDisplay:10.37,2014-01-30 22:11:00,
2014-01-30 16:16:00,34.4,0.0,29.78,South,176,23.0,23.0,0,0.00,CLR,,0.00,WeatherDisplay:10.37,2014-01-30 22:16:00,
2014-01-30 16:21:00,34.2,0.0,29.79,SSE,164,15.0,15.0,0,0.00,CLR,,0.00,WeatherDisplay:10.37,2014-01-30 22:21:00,
2014-01-30 16:26:00,34.3,0.0,29.79,ESE,110,10.4,10.4,0,0.00,CLR,,0.00,WeatherDisplay:10.37,2014-01-30 22:26:00,
2014-01-30 16:31:00,34.4,0.0,29.79,SSW,209,10.4,10.4,0,0.00,CLR,,0.00,WeatherDisplay:10.37,2014-01-30 22:31:00,
2014-01-30 16:36:00,34.3,0.0,29.81,West,261,6.9,6.9,0,0.00,CLR,,0.00,WeatherDisplay:10.37,2014-01-30 22:36:00,
2014-01-30 16:41:00,34.0,0.0,29.81,SSW,208,9.2,9.2,0,0.00,CLR,,0.00,WeatherDisplay:10.37,2014-01-30 22:41:00,
2014-01-30 16:46:00,34.3,0.0,29.82,SSW,212,10.4,10.4,0,0.00,CLR,,0.00,WeatherDisplay:10.37,2014-01-30 22:46:00,
2014-01-30 16:51:00,34.2,0.0,29.82,South,188,9.6,9.6,0,0.00,CLR,,0.00,WeatherDisplay:10.37,2014-01-30 22:51:00,
2014-01-30 16:56:00,34.2,0.0,29.83,West,268,6.2,6.2,0,0.00,CLR,,0.00,WeatherDisplay:10.37,2014-01-30 22:56:00,
2014-01-30 17:01:00,34.1,0.0,29.83,SW,220,6.8,6.8,0,0.00,CLR,,0.00,WeatherDisplay:10.37,2014-01-30 23:01:00,
2014-01-30 17:06:00,34.1,0.0,29.83,South,174,5.8,5.8,0,0.00,CLR,,0.00,WeatherDisplay:10.37,2014-01-30 23:06:00,
2014-01-30 17:12:00,34.4,0.0,29.83,WSW,246,8.1,8.1,0,0.00,CLR,,0.00,WeatherDisplay:10.37,2014-01-30 23:12:00,
2014-01-30 17:13:00,34.2,0.0,29.83,SSW,202,13.8,13.8,0,0.00,CLR,,0.00,WeatherDisplay:10.37,2014-01-30 23:13:00,
2014-01-30 17:18:00,34.6,0.0,29.83,WSW,257,15.0,15.0,0,0.00,CLR,,0.00,WeatherDisplay:10.37,2014-01-30 23:18:00,
2014-01-30 17:23:00,34.4,0.0,29.83,SSW,213,8.1,8.1,0,0.00,CLR,,0.00,WeatherDisplay:10.37,2014-01-30 23:23:00,
2014-01-30 17:28:00,34.3,0.0,29.83,SSW,192,10.0,10.0,0,0.00,CLR,,0.00,WeatherDisplay:10.37,2014-01-30 23:28:00,
2014-01-30 17:33:00,34.8,0.0,29.82,SSW,196,9.5,9.5,0,0.00,CLR,,0.00,WeatherDisplay:10.37,2014-01-30 23:33:00,
2014-01-30 17:38:00,35.0,0.0,29.83,South,188,15.0,15.0,0,0.00,CLR,,0.00,WeatherDisplay:10.37,2014-01-30 23:38:00,
2014-01-30 17:43:00,34.8,0.0,29.82,SSW,195,10.4,10.4,0,0.00,CLR,,0.00,WeatherDisplay:10.37,2014-01-30 23:43:00,
2014-01-30 17:48:00,34.9,0.0,29.81,SSW,210,10.4,10.4,0,0.00,CLR,,0.00,WeatherDisplay:10.37,2014-01-30 23:48:00,
2014-01-30 17:53:00,34.9,0.0,29.82,South,189,9.2,9.2,0,0.00,CLR,,0.00,WeatherDisplay:10.37,2014-01-30 23:53:00,
2014-01-30 17:58:00,34.6,0.0,29.82,SSE,164,9.2,9.2,0,0.00,CLR,,0.00,WeatherDisplay:10.37,2014-01-30 23:58:00,
2014-01-30 18:03:00,35.0,0.0,29.82,SSW,192,9.2,9.2,0,0.00,CLR,,0.00,WeatherDisplay:10.37,2014-01-31 00:03:00,
2014-01-30 18:08:00,34.6,0.0,29.82,SSW,206,6.9,6.9,0,0.00,CLR,,0.00,WeatherDisplay:10.37,2014-01-31 00:08:00,
2014-01-30 18:13:00,34.5,0.0,29.83,SSW,205,4.6,4.6,0,0.00,CLR,,0.00,WeatherDisplay:10.37,2014-01-31 00:13:00,
2014-01-30 18:18:00,34.6,0.0,29.83,SSW,199,4.6,4.6,0,0.00,CLR,,0.00,WeatherDisplay:10.37,2014-01-31 00:18:00,
2014-01-30 18:23:00,34.8,0.0,29.84,SSW,202,5.8,5.8,0,0.00,CLR,,0.00,WeatherDisplay:10.37,2014-01-31 00:23:00,
2014-01-30 18:28:00,34.9,0.0,29.84,SSW,193,9.2,9.2,0,0.00,CLR,,0.00,WeatherDisplay:10.37,2014-01-31 00:28:00,
2014-01-30 18:33:00,34.6,0.0,29.84,SSE,167,8.1,8.1,0,0.00,CLR,,0.00,WeatherDisplay:10.37,2014-01-31 00:33:00,
2014-01-30 18:38:00,34.6,0.0,29.84,South,176,0.0,0.0,0,0.00,CLR,,0.00,WeatherDisplay:10.37,2014-01-31 00:38:00,
2014-01-30 18:43:00,34.5,0.0,29.84,South,182,9.5,9.5,0,0.00,CLR,,0.00,WeatherDisplay:10.37,2014-01-31 00:43:00,
2014-01-30 18:48:00,34.5,0.0,29.84,South,169,5.8,5.8,0,0.00,CLR,,0.00,WeatherDisplay:10.37,2014-01-31 00:48:00,
2014-01-30 18:53:00,34.3,0.0,29.85,South,172,11.5,11.5,0,0.00,CLR,,0.00,WeatherDisplay:10.37,2014-01-31 00:53:00,
2014-01-30 18:58:00,34.3,0.0,29.85,SSW,192,9.2,9.2,0,0.00,CLR,,0.00,WeatherDisplay:10.37,2014-01-31 00:58:00,
2014-01-30 19:03:00,34.3,0.0,29.85,SSW,203,10.4,10.4,0,0.00,CLR,,0.00,WeatherDisplay:10.37,2014-01-31 01:03:00,
2014-01-30 19:08:00,34.1,0.0,29.85,SSW,199,8.1,8.1,0,0.00,CLR,,0.00,WeatherDisplay:10.37,2014-01-31 01:08:00,
2014-01-30 19:13:00,34.1,0.0,29.85,South,176,9.2,9.2,0,0.00,CLR,,0.00,WeatherDisplay:10.37,2014-01-31 01:13:00,
2014-01-30 19:18:00,34.1,0.0,29.85,SSE,168,10.4,10.4,0,0.00,CLR,,0.00,WeatherDisplay:10.37,2014-01-31 01:18:00,
2014-01-30 19:23:00,33.9,0.0,29.85,South,188,0.0,0.0,0,0.00,CLR,,0.00,WeatherDisplay:10.37,2014-01-31 01:23:00,
2014-01-30 19:28:00,33.9,0.0,29.85,SSE,168,0.0,0.0,0,0.00,CLR,,0.00,WeatherDisplay:10.37,2014-01-31 01:28:00,
2014-01-30 19:33:00,33.9,0.0,29.85,South,184,5.5,5.5,0,0.00,CLR,,0.00,WeatherDisplay:10.37,2014-01-31 01:33:00,
2014-01-30 19:38:00,33.8,0.0,29.85,South,188,4.6,4.6,0,0.00,CLR,,0.00,WeatherDisplay:10.37,2014-01-31 01:38:00,
2014-01-30 19:43:00,34.0,0.0,29.85,SW,229,6.9,6.9,0,0.00,CLR,,0.00,WeatherDisplay:10.37,2014-01-31 01:43:00,
2014-01-30 19:48:00,34.0,0.0,29.85,SSE,152,6.9,6.9,0,0.00,CLR,,0.00,WeatherDisplay:10.37,2014-01-31 01:48:00,
2014-01-30 19:53:00,34.2,0.0,29.85,South,176,12.7,12.7,0,0.00,CLR,,0.00,WeatherDisplay:10.37,2014-01-31 01:53:00,
2014-01-30 19:58:00,34.2,0.0,29.85,SSW,213,10.4,10.4,0,0.00,CLR,,0.00,WeatherDisplay:10.37,2014-01-31 01:58:00,
2014-01-30 20:03:00,34.3,0.0,29.85,SSW,198,8.1,8.1,0,0.00,CLR,,0.00,WeatherDisplay:10.37,2014-01-31 02:03:00,
2014-01-30 20:08:00,34.3,0.0,29.86,South,186,6.9,6.9,0,0.00,CLR,,0.00,WeatherDisplay:10.37,2014-01-31 02:08:00,
2014-01-30 20:13:00,34.2,0.0,29.86,SSW,192,12.7,12.7,0,0.00,CLR,,0.00,WeatherDisplay:10.37,2014-01-31 02:13:00,
2014-01-30 20:18:00,34.2,0.0,29.86,SSW,202,8.1,8.1,0,0.00,CLR,,0.00,WeatherDisplay:10.37,2014-01-31 02:18:00,
2014-01-30 20:23:00,34.1,0.0,29.86,WSW,237,9.2,9.2,0,0.00,CLR,,0.00,WeatherDisplay:10.37,2014-01-31 02:23:00,
2014-01-30 20:28:00,34.3,0.0,29.86,SSW,199,10.4,10.4,0,0.00,CLR,,0.00,WeatherDisplay:10.37,2014-01-31 02:28:00,
2014-01-30 20:33:00,34.3,0.0,29.86,South,191,8.1,8.1,0,0.00,CLR,,0.00,WeatherDisplay:10.37,2014-01-31 02:33:00,
2014-01-30 20:38:00,34.4,0.0,29.86,South,178,9.1,9.1,0,0.00,CLR,,0.00,WeatherDisplay:10.37,2014-01-31 02:38:00,
2014-01-30 20:43:00,34.2,0.0,29.86,SSW,192,10.4,10.4,0,0.00,CLR,,0.00,WeatherDisplay:10.37,2014-01-31 02:43:00,
2014-01-30 20:48:00,34.3,0.0,29.86,South,189,12.7,12.7,0,0.00,CLR,,0.00,WeatherDisplay:10.37,2014-01-31 02:48:00,
2014-01-30 20:53:00,34.4,0.0,29.86,SSW,206,6.9,6.9,0,0.00,CLR,,0.00,WeatherDisplay:10.37,2014-01-31 02:53:00,
2014-01-30 20:58:00,34.3,0.0,29.87,South,186,10.4,10.4,0,0.00,CLR,,0.00,WeatherDisplay:10.37,2014-01-31 02:58:00,
2014-01-30 21:03:00,34.3,0.0,29.87,SSW,200,16.1,16.1,0,0.00,CLR,,0.00,WeatherDisplay:10.37,2014-01-31 03:03:00,
2014-01-30 21:08:00,34.4,0.0,29.87,SSW,210,9.2,9.2,0,0.00,CLR,,0.00,WeatherDisplay:10.37,2014-01-31 03:08:00,
2014-01-30 21:13:00,34.5,0.0,29.87,SSW,195,5.8,5.8,0,0.00,CLR,,0.00,WeatherDisplay:10.37,2014-01-31 03:13:00,
2014-01-30 21:18:00,34.4,0.0,29.87,SW,236,12.7,12.7,0,0.00,CLR,,0.00,WeatherDisplay:10.37,2014-01-31 03:18:00,
2014-01-30 21:23:00,34.4,0.0,29.88,South,182,7.1,7.1,0,0.00,CLR,,0.00,WeatherDisplay:10.37,2014-01-31 03:23:00,
2014-01-30 21:28:00,34.4,0.0,29.88,SW,217,10.4,10.4,0,0.00,CLR,,0.00,WeatherDisplay:10.37,2014-01-31 03:28:00,
2014-01-30 21:33:00,34.4,0.0,29.88,SSW,203,13.8,13.8,0,0.00,CLR,,0.00,WeatherDisplay:10.37,2014-01-31 03:33:00,
2014-01-30 21:38:00,34.5,0.0,29.88,SW,219,9.2,9.2,0,0.00,CLR,,0.00,WeatherDisplay:10.37,2014-01-31 03:38:00,
2014-01-30 21:43:00,34.3,0.0,29.88,South,175,12.7,12.7,0,0.00,CLR,,0.00,WeatherDisplay:10.37,2014-01-31 03:43:00,
2014-01-30 21:48:00,34.5,0.0,29.89,SSE,150,17.2,17.2,0,0.00,CLR,,0.00,WeatherDisplay:10.37,2014-01-31 03:48:00,
2014-01-30 21:53:00,34.3,0.0,29.89,SSE,160,9.2,9.2,0,0.00,CLR,,0.00,WeatherDisplay:10.37,2014-01-31 03:53:00,
2014-01-30 21:58:00,34.7,0.0,29.89,SSE,148,10.4,10.4,0,0.00,CLR,,0.00,WeatherDisplay:10.37,2014-01-31 03:58:00,
2014-01-30 22:03:00,34.5,0.0,29.89,SW,223,11.5,11.5,0,0.00,CLR,,0.00,WeatherDisplay:10.37,2014-01-31 04:03:00,
2014-01-30 22:08:00,34.7,0.0,29.89,SSW,200,12.7,12.7,0,0.00,CLR,,0.00,WeatherDisplay:10.37,2014-01-31 04:08:00,
2014-01-30 22:13:00,34.6,0.0,29.89,WSW,237,13.8,13.8,0,0.00,CLR,,0.00,WeatherDisplay:10.37,2014-01-31 04:13:00,
2014-01-30 22:18:00,34.7,0.0,29.89,SSE,162,11.5,11.5,0,0.00,CLR,,0.00,WeatherDisplay:10.37,2014-01-31 04:18:00,
2014-01-30 22:23:00,34.4,0.0,29.89,WSW,239,12.7,12.7,0,0.00,CLR,,0.00,WeatherDisplay:10.37,2014-01-31 04:23:00,
2014-01-30 22:28:00,34.4,0.0,29.89,SW,226,12.7,12.7,0,0.00,CLR,,0.00,WeatherDisplay:10.37,2014-01-31 04:28:00,
2014-01-30 22:33:00,34.4,0.0,29.90,SW,230,10.4,10.4,0,0.00,CLR,,0.00,WeatherDisplay:10.37,2014-01-31 04:33:00,
2014-01-30 22:38:00,34.3,0.0,29.90,South,181,16.1,16.1,0,0.00,CLR,,0.00,WeatherDisplay:10.37,2014-01-31 04:38:00,
2014-01-30 22:43:00,34.4,0.0,29.90,South,179,9.2,9.2,0,0.00,CLR,,0.00,WeatherDisplay:10.37,2014-01-31 04:43:00,
2014-01-30 22:48:00,34.1,0.0,29.90,South,188,5.8,5.8,0,0.00,CLR,,0.00,WeatherDisplay:10.37,2014-01-31 04:48:00,
2014-01-30 22:53:00,34.1,0.0,29.90,WSW,258,7.1,7.1,0,0.00,CLR,,0.00,WeatherDisplay:10.37,2014-01-31 04:53:00,
2014-01-30 22:58:00,34.0,0.0,29.90,SE,140,8.1,8.1,0,0.00,CLR,,0.00,WeatherDisplay:10.37,2014-01-31 04:58:00,
2014-01-30 23:01:00,33.9,0.0,29.90,WSW,247,8.1,8.1,0,0.00,CLR,,0.00,WeatherDisplay:10.37,2014-01-31 05:01:00,
2014-01-30 23:06:00,33.7,0.0,29.90,South,174,8.1,8.1,0,0.00,CLR,,0.00,WeatherDisplay:10.37,2014-01-31 05:06:00,
2014-01-30 23:11:00,33.6,0.0,29.90,SW,217,9.2,9.2,0,0.00,CLR,,0.00,WeatherDisplay:10.37,2014-01-31 05:11:00,
2014-01-30 23:16:00,33.6,0.0,29.90,SSW,212,9.7,9.7,0,0.00,CLR,,0.00,WeatherDisplay:10.37,2014-01-31 05:16:00,
2014-01-30 23:21:00,33.7,0.0,29.90,SW,217,15.0,15.0,0,0.00,CLR,,0.00,WeatherDisplay:10.37,2014-01-31 05:21:00,
2014-01-30 23:26:00,33.7,0.0,29.91,WSW,256,5.8,5.8,0,0.00,CLR,,0.00,WeatherDisplay:10.37,2014-01-31 05:26:00,
2014-01-30 23:31:00,33.5,0.0,29.91,SSW,210,5.8,5.8,0,0.00,CLR,,0.00,WeatherDisplay:10.37,2014-01-31 05:31:00,
2014-01-30 23:36:00,33.5,0.0,29.90,WSW,240,4.6,4.6,0,0.00,CLR,,0.00,WeatherDisplay:10.37,2014-01-31 05:36:00,
2014-01-30 23:41:00,33.2,0.0,29.90,WSW,258,8.1,8.1,0,0.00,CLR,,0.00,WeatherDisplay:10.37,2014-01-31 05:41:00,
2014-01-30 23:46:00,33.3,0.0,29.90,SSW,213,4.6,4.6,0,0.00,CLR,,0.00,WeatherDisplay:10.37,2014-01-31 05:46:00,
2014-01-30 23:51:00,33.2,0.0,29.90,West,264,5.2,5.2,0,0.00,CLR,,0.00,WeatherDisplay:10.37,2014-01-31 05:51:00,
2014-01-30 23:56:00,33.1,0.0,29.90,WNW,289,3.5,3.5,0,0.00,CLR,,0.00,WeatherDisplay:10.37,2014-01-31 05:56:00,